Temp_Advection
nan nan nan nan nan nan nan nan nan nan nan nan nan nan nan nan nan nan nan nan nan nan nan nan nan nan nan
nan -0 -0 -0 -0 -1 -1 -0 0 -0 -1 -1 -0 -1 -0 0 0 0 0 -1 -1 0 0 -0 -0 0 nan
nan -0 -1 -0 -0 -1 -1 -1 -0 1 -0 -1 -1 -0 -0 0 0 0 -0 0 0 -0 -0 0 -0 -0 nan
nan -0 0 0 0 -1 -1 -1 -1 -0 0 -0 -1 -1 -0 -0 -0 -0 0 1 1 0 -0 -0 -0 0 nan
nan -1 -0 0 0 0 -0 -1 -1 -1 -0 -0 -0 -1 -0 0 0 0 0 1 0 -0 -1 -0 -0 0 nan
nan -0 -1 -0 -0 0 0 -0 -1 -0 -0 -0 -0 -0 -0 -0 -0 0 0 0 -0 -0 -0 -0 0 0 nan
nan -0 -0 -0 -0 0 0 -0 -1 -0 0 -0 -0 0 0 0 0 0 0 0 0 0 0 0 -1 -0 nan
nan -0 -0 -0 -0 -0 -0 -0 -0 -0 -0 -0 -0 -0 0 -0 -0 0 0 0 0 0 -0 -0 0 -0 nan
nan -0 -0 -0 -0 -0 -0 -0 -0 -0 -0 -0 -1 -0 0 0 -0 0 0 -0 0 0 -0 -0 -0 0 nan
nan -1 -0 -0 -0 0 -0 -0 0 -0 -0 -0 -0 0 -0 -0 0 0 -0 -0 -0 -0 -0 0 -0 -0 nan
nan -0 -0 -0 -0 -0 -0 0 -0 -0 0 -0 0 0 0 0 0 0 0 1 0 0 0 0 -0 0 nan
nan -0 -0 -0 -0 -0 -0 -0 -0 0 0 0 0 0 0 0 0 -0 0 1 0 0 1 -0 -0 -0 nan
nan -0 -0 -0 -0 -0 0 0 -0 -0 -0 0 0 -0 0 0 -0 -0 0 -0 0 0 -0 -0 -1 -0 nan
nan -0 -0 -0 -0 -0 -0 0 0 0 -0 -0 0 0 -0 0 -0 -0 0 -0 -0 0 0 0 0 0 nan
nan -0 -0 -0 -0 -0 -0 -0 0 0 -0 0 -0 -0 0 -0 -0 0 -0 -0 -0 0 0 0 0 -0 nan
nan 0 -0 -0 -0 -0 -0 -0 -0 -0 -0 -0 -0 -0 -0 -0 0 0 -0 -0 -0 -0 -1 -1 -0 0 nan
nan nan nan nan nan nan nan nan nan nan nan nan nan nan nan nan nan nan nan nan nan nan nan nan nan nan nan
Wind_Speed
36 35 33 34 35 36 40 30 29 33 33 37 37 37 36 33 35 37 37 37 33 33 37 32 32 30 35
38 35 32 32 32 31 33 34 36 27 29 30 33 34 39 36 34 36 37 37 36 33 34 35 38 38 38
37 35 36 33 33 31 30 27 34 36 24 26 27 29 32 36 37 40 40 42 39 38 39 39 39 39 37
32 34 29 27 29 28 28 27 26 25 26 23 23 26 27 28 31 36 37 38 37 35 34 36 39 38 38
26 30 32 29 23 20 23 20 22 24 23 25 23 24 23 23 28 31 33 34 34 33 34 36 37 38 39
25 26 25 26 25 21 18 19 23 21 24 26 24 23 21 20 22 24 24 25 28 31 33 36 36 35 37
24 23 24 20 15 16 18 21 23 21 14 15 12 17 15 21 21 20 21 22 23 26 29 30 31 34 34
19 21 22 22 20 18 17 18 17 16 16 17 17 14 14 16 20 22 24 26 27 27 28 30 30 30 31
20 20 19 19 19 17 19 20 21 22 21 21 22 23 20 23 26 27 23 25 26 28 28 30 31 27 28
21 21 21 21 20 19 22 22 23 23 24 21 21 23 22 27 27 27 27 30 30 28 30 27 28 27 29
21 21 21 20 19 17 19 18 18 19 20 19 22 21 19 15 15 20 24 25 26 26 24 26 27 28 26
13 14 14 15 15 14 13 14 14 15 16 17 17 18 17 18 16 16 18 21 20 21 20 21 22 21 22
10 10 10 11 11 11 11 10 11 12 13 15 15 17 19 18 17 16 18 19 22 21 21 22 22 22 22
10 9 9 9 9 8 8 8 8 8 9 9 10 12 13 14 14 18 17 14 13 14 17 18 20 21 21
8 8 7 6 6 6 5 5 6 7 8 8 8 8 9 11 13 14 14 15 15 15 17 18 16 17 18
6 7 7 6 6 6 6 4 4 5 6 8 8 8 7 6 7 7 9 10 10 11 12 16 17 14 13
6 7 7 6 5 5 5 6 6 6 6 7 7 6 5 5 8 9 7 11 14 13 12 12 16 12 11
Wind_Direction
291 293 287 281 276 276 270 269 271 263 259 246 247 243 243 239 240 240 242 253 253 247 248 247 251 254 258
291 295 290 286 278 275 279 265 263 274 258 249 244 243 240 242 242 243 243 245 246 242 244 247 254 257 256
289 292 290 292 295 285 279 271 259 273 278 261 247 244 243 243 246 245 246 249 248 248 252 252 253 253 255
288 291 306 296 290 283 282 267 264 273 269 265 261 250 247 247 248 247 249 247 245 247 248 249 250 251 252
287 293 296 298 291 295 272 271 263 265 270 267 255 255 252 252 250 250 248 246 248 250 252 253 254 253 253
298 288 297 296 293 281 281 265 269 263 279 266 261 266 262 258 259 258 256 254 251 251 252 253 252 252 252
288 291 286 292 291 279 268 265 266 271 267 265 262 264 263 251 250 242 243 245 248 253 255 255 258 258 256
282 282 282 282 283 284 280 275 274 279 278 279 276 270 259 254 253 249 249 249 250 253 256 259 258 259 258
273 275 279 280 280 278 276 280 279 277 276 274 269 269 265 262 262 266 263 257 258 258 263 261 260 264 259
273 273 273 274 275 273 276 275 272 274 272 267 265 266 266 269 261 260 262 264 265 262 271 265 261 259 255
271 273 275 276 276 275 277 273 272 262 259 264 261 254 249 254 248 251 254 254 261 260 266 261 260 256 255
276 274 275 276 277 275 271 267 261 260 263 264 261 258 257 257 254 254 253 256 254 257 259 263 264 263 256
289 288 286 285 282 275 267 265 264 264 266 265 264 266 258 254 256 258 263 264 264 266 267 267 267 266 265
288 286 285 290 293 287 281 276 269 266 259 256 257 259 264 260 264 263 266 259 262 258 263 263 263 262 266
298 300 302 298 298 303 284 266 263 277 282 280 271 263 256 259 262 263 262 265 268 268 266 268 268 271 272
299 306 305 311 314 318 326 319 298 289 295 296 303 297 294 283 273 267 282 284 277 280 281 282 280 282 283
306 308 305 308 317 320 323 327 322 321 318 318 330 337 330 304 287 283 277 300 299 296 293 286 291 303 290
Height
1399 1396 1395 1393 1392 1391 1389 1388 1389 1389 1390 1393 1398 1401 1404 1407 1411 1415 1417 1420 1421 1422 1427 1435 1438 1439 1440
1393 1390 1388 1386 1385 1384 1382 1382 1383 1380 1383 1386 1389 1392 1395 1398 1402 1405 1407 1410 1414 1415 1422 1425 1429 1431 1433
1386 1385 1381 1379 1378 1376 1375 1375 1376 1376 1375 1378 1382 1384 1387 1390 1393 1396 1399 1402 1405 1408 1412 1415 1420 1420 1423
1383 1381 1378 1374 1373 1371 1369 1371 1370 1372 1371 1372 1375 1378 1381 1384 1386 1388 1391 1393 1397 1401 1403 1406 1411 1410 1413
1379 1376 1373 1370 1368 1365 1365 1366 1366 1367 1367 1367 1370 1372 1374 1376 1378 1381 1384 1386 1389 1392 1395 1397 1400 1401 1405
1374 1372 1368 1366 1364 1363 1362 1363 1363 1362 1362 1362 1364 1365 1367 1369 1372 1375 1377 1379 1382 1385 1387 1390 1391 1391 1395
1366 1366 1364 1363 1361 1360 1358 1358 1359 1359 1359 1358 1360 1360 1364 1363 1366 1370 1373 1374 1375 1376 1378 1379 1380 1383 1385
1361 1360 1358 1358 1357 1357 1356 1355 1355 1355 1355 1355 1357 1358 1359 1361 1362 1365 1367 1368 1369 1370 1371 1372 1372 1373 1373
1357 1355 1353 1352 1352 1353 1352 1352 1351 1351 1351 1350 1351 1354 1355 1355 1357 1359 1360 1361 1361 1363 1364 1364 1364 1365 1366
1351 1350 1349 1347 1347 1347 1347 1347 1347 1346 1346 1347 1347 1348 1348 1348 1349 1350 1351 1353 1353 1354 1354 1354 1355 1356 1358
1345 1344 1343 1342 1341 1341 1340 1340 1340 1340 1340 1341 1340 1342 1342 1342 1342 1344 1344 1345 1345 1346 1346 1347 1348 1349 1350
1340 1338 1338 1337 1336 1335 1334 1334 1335 1336 1335 1336 1336 1336 1336 1336 1337 1337 1338 1338 1338 1339 1339 1341 1341 1342 1342
1337 1336 1334 1334 1332 1332 1331 1331 1331 1331 1332 1332 1332 1331 1330 1331 1331 1331 1332 1332 1333 1333 1334 1335 1334 1334 1335
1337 1335 1333 1331 1331 1330 1328 1327 1328 1328 1328 1328 1328 1328 1328 1327 1328 1327 1327 1328 1326 1327 1328 1328 1328 1329 1329
1335 1334 1332 1330 1329 1329 1327 1326 1326 1326 1326 1326 1325 1324 1324 1324 1324 1323 1322 1321 1321 1321 1322 1322 1323 1322 1322
1333 1333 1332 1329 1328 1328 1328 1326 1325 1325 1324 1324 1323 1322 1322 1322 1321 1320 1320 1319 1318 1317 1317 1315 1315 1316 1316
1332 1331 1331 1330 1328 1327 1327 1327 1326 1324 1324 1323 1322 1321 1321 1320 1320 1320 1318 1317 1316 1314 1313 1311 1310 1311 1310